Date String (YYYY-MM-DD hh:mm:ss) UTC,Instrument flags,Ambient pressure (hPa),Sample flow (lpm),Bypass flow (lpm),Sample temperature (°C),Ambient temperature (°C),ASC tube jacket temperature (°C),LED temperature (°C),Box temperature (°C),Sample RH (%),Span deviation,Mass concentration (μg/m³),Mass concentration (μg/m³),Mass concentration (μg/m³)
DateTimeUTC,F1_M11,P_M11,Q1_M11,Q2_M11,T1_M11,T2_M11,T3_M11,T4_M11,T5_M11,U1_M11,ZSPAN_M11,X0_M11,X2_M11,X1_M11
2022-02-25 18:00:00,,0830.3,5.01,0.00,22.6,22.0,00.0,31.4,24.5,06.4,0000.7,0020.28,0013.47,0012.65
2022-02-25 18:01:00,,0830.2,5.00,0.00,22.7,22.1,00.0,31.4,24.6,06.3,0000.3,0020.13,0013.44,0012.64
2022-02-25 18:02:00,,0830.1,5.00,0.00,22.7,22.1,00.0,31.5,24.6,06.5,0000.1,0019.52,0013.42,0012.66
2022-02-25 18:03:00,,0830.1,5.00,0.00,22.7,22.1,00.0,31.5,24.6,06.6,-000.2,0019.56,0013.41,0012.69
2022-02-25 18:04:00,,0830.2,5.00,0.00,22.7,22.1,00.0,31.5,24.6,06.5,-000.7,0020.51,0013.45,0012.71
2022-02-25 18:05:00,,0830.1,4.98,0.00,22.7,22.1,00.0,31.5,24.6,06.5,-000.7,0020.69,0013.46,0012.73
2022-02-25 18:06:00,,0830.2,5.00,0.00,22.7,22.1,00.0,31.5,24.6,06.5,-000.8,0020.25,0013.44,0012.70
2022-02-25 18:07:00,,0830.3,5.01,0.00,22.8,22.1,00.0,31.5,24.6,06.5,-001.1,0020.26,0013.43,0012.69
2022-02-25 18:08:00,,0830.2,5.00,0.00,22.8,22.2,00.0,31.6,24.7,06.5,-001.1,0019.86,0013.41,0012.66
2022-02-25 18:09:00,,0830.1,5.00,0.00,22.8,22.2,00.0,31.6,24.7,06.4,-001.2,0019.74,0013.39,0012.62
2022-02-25 18:10:00,,0830.1,5.01,0.00,22.8,22.2,00.0,31.6,24.7,06.4,-001.1,0019.66,0013.35,0012.60
2022-02-25 18:11:00,,0830.1,5.00,0.00,22.8,22.2,00.0,31.6,24.7,06.4,-001.3,0019.57,0013.31,0012.59
2022-02-25 18:12:00,,0830.1,4.99,0.00,22.8,22.2,00.0,31.6,24.7,06.5,-001.1,0019.67,0013.34,0012.60
2022-02-25 18:13:00,,0830.1,5.00,0.00,22.9,22.2,00.0,31.6,24.7,06.6,-000.8,0019.71,0013.35,0012.59
2022-02-25 18:14:00,,0830.1,5.00,0.00,22.9,22.3,00.0,31.7,24.8,06.5,-000.6,0020.11,0013.33,0012.55
2022-02-25 18:15:00,,0830.0,5.00,0.00,22.9,22.3,00.0,31.7,24.8,06.5,-000.0,0019.68,0013.26,0012.49
2022-02-25 18:16:00,,0830.1,5.00,0.00,22.9,22.3,00.0,31.7,24.8,06.5,-000.1,0019.29,0013.21,0012.43
2022-02-25 18:17:00,,0830.1,5.01,0.00,22.9,22.3,00.0,31.7,24.8,06.4,-000.3,0019.17,0013.14,0012.38
2022-02-25 18:18:00,,0830.1,5.00,0.00,22.9,22.3,00.0,31.7,24.8,06.4,-000.4,0019.55,0013.11,0012.36
2022-02-25 18:19:00,,0830.2,5.00,0.00,23.0,22.4,00.0,31.7,24.8,06.4,-000.2,0020.03,0013.09,0012.36
2022-02-25 18:20:00,,0830.1,5.00,0.00,23.0,22.4,00.0,31.8,24.9,06.4,0000.1,0020.19,0013.11,0012.40
2022-02-25 18:21:00,,0830.0,5.00,0.00,23.0,22.4,00.0,31.8,24.9,06.4,0000.3,0020.34,0013.17,0012.44
2022-02-25 18:22:00,,0830.0,5.00,0.00,23.0,22.4,00.0,31.8,24.9,06.5,0000.3,0020.94,0013.25,0012.52
2022-02-25 18:23:00,,0830.1,5.00,0.00,23.0,22.4,00.0,31.8,24.9,06.5,0000.6,0021.24,0013.32,0012.59
2022-02-25 18:24:00,,0830.0,5.00,0.00,23.1,22.4,00.0,31.8,24.9,06.4,0000.1,0021.84,0013.34,0012.63
2022-02-25 18:25:00,,0830.1,5.00,0.00,23.1,22.4,00.0,31.9,25.0,06.3,-000.0,0021.75,0013.37,0012.66
2022-02-25 18:26:00,,0830.1,5.00,0.00,23.1,22.4,00.0,31.9,25.0,06.4,-000.2,0021.26,0013.44,0012.71
2022-02-25 18:27:00,,0830.0,5.00,0.00,23.1,22.5,00.0,31.9,25.0,06.4,-000.2,0021.69,0013.43,0012.73
2022-02-25 18:28:00,,0830.1,5.00,0.00,23.1,22.5,00.0,31.9,25.0,06.5,-000.1,0022.10,0013.48,0012.77
2022-02-25 18:29:00,,0830.0,5.00,0.00,23.1,22.5,00.0,31.9,25.0,06.6,0000.0,0021.73,0013.52,0012.80
2022-02-25 18:30:00,,0830.0,5.00,0.00,23.1,22.5,00.0,31.9,25.0,06.5,-000.1,0021.17,0013.53,0012.79
2022-02-25 18:31:00,,0830.0,4.99,0.00,23.2,22.5,00.0,31.9,25.0,06.5,0000.0,0020.99,0013.59,0012.81
2022-02-25 18:32:00,,0830.1,5.00,0.00,23.1,22.4,00.0,31.9,25.0,06.3,-000.2,0020.80,0013.54,0012.81
2022-02-25 18:33:00,,0830.0,5.00,0.00,23.1,22.4,00.0,32.0,25.0,06.3,-000.1,0020.27,0013.49,0012.76
2022-02-25 18:34:00,,0830.1,5.01,0.00,23.1,22.4,00.0,32.0,25.0,06.5,0000.1,0020.06,0013.47,0012.73
2022-02-25 18:35:00,,0830.0,5.00,0.00,23.1,22.4,00.0,32.0,25.0,06.5,0000.7,0019.68,0013.47,0012.70
2022-02-25 18:36:00,,0830.1,5.00,0.00,23.1,22.4,00.0,32.0,25.0,06.5,0000.5,0019.56,0013.44,0012.69
2022-02-25 18:37:00,,0830.0,4.99,0.00,23.1,22.5,00.0,32.0,25.0,06.6,0000.2,0019.52,0013.41,0012.66
2022-02-25 18:38:00,,0830.0,5.00,0.00,23.2,22.5,00.0,32.0,25.0,06.5,-000.0,0018.94,0013.44,0012.64
2022-02-25 18:39:00,,0830.1,5.00,0.00,23.2,22.5,00.0,32.0,25.0,06.5,-000.2,0018.74,0013.45,0012.62
2022-02-25 18:40:00,,0830.0,5.00,0.00,23.2,22.5,00.0,32.0,25.0,06.5,-000.0,0019.00,0013.46,0012.63
2022-02-25 18:41:00,,0830.0,5.00,0.00,23.2,22.5,00.0,32.0,25.1,06.5,0000.1,0019.50,0013.48,0012.62
2022-02-25 18:42:00,,0830.0,5.01,0.00,23.2,22.5,00.0,32.1,25.1,06.4,-000.1,0019.44,0013.43,0012.58
2022-02-25 18:43:00,,0830.0,5.01,0.00,23.2,22.6,00.0,32.1,25.1,06.4,-000.2,0019.55,0013.39,0012.55
2022-02-25 18:44:00,,0830.0,5.01,0.00,23.3,22.6,00.0,32.1,25.1,06.5,-000.3,0020.02,0013.40,0012.54
2022-02-25 18:45:00,,0830.1,4.99,0.00,23.3,22.6,00.0,32.1,25.1,06.4,-000.6,0019.87,0013.37,0012.54
2022-02-25 18:46:00,,0830.0,5.00,0.00,23.3,22.6,00.0,32.1,25.1,06.3,-000.7,0019.72,0013.34,0012.54
2022-02-25 18:47:00,,0830.0,5.00,0.00,23.3,22.6,00.0,32.1,25.1,06.4,-000.6,0019.52,0013.34,0012.54
2022-02-25 18:48:00,,0830.0,5.01,0.00,23.3,22.6,00.0,32.1,25.1,06.6,-000.4,0019.61,0013.36,0012.57
2022-02-25 18:49:00,,0829.9,5.01,0.00,23.3,22.6,00.0,32.1,25.1,06.4,-000.5,0019.65,0013.36,0012.62
2022-02-25 18:50:00,,0829.9,5.01,0.00,23.3,22.6,00.0,32.2,25.1,06.4,-000.2,0019.62,0013.36,0012.65
2022-02-25 18:51:00,,0829.8,5.01,0.00,23.3,22.6,00.0,32.2,25.1,06.6,-000.4,0019.37,0013.33,0012.66
2022-02-25 18:52:00,,0829.8,5.00,0.00,23.3,22.6,00.0,32.2,25.1,06.3,-000.6,0019.06,0013.33,0012.67
2022-02-25 18:53:00,,0829.9,4.99,0.00,23.3,22.6,00.0,32.2,25.1,06.4,-000.7,0019.12,0013.36,0012.72
2022-02-25 18:54:00,,0829.9,4.99,0.00,23.3,22.6,00.0,32.2,25.1,06.3,-000.7,0019.39,0013.43,0012.78
2022-02-25 18:55:00,,0829.8,5.00,0.00,23.3,22.6,00.0,32.2,25.2,06.2,-000.8,0019.29,0013.45,0012.80
2022-02-25 18:56:00,,0829.8,5.00,0.00,23.4,22.7,00.0,32.2,25.2,06.3,-000.7,0019.29,0013.46,0012.82
2022-02-25 18:57:00,,0829.8,5.00,0.00,23.4,22.7,00.0,32.2,25.2,06.4,-000.9,0019.27,0013.48,0012.83
2022-02-25 18:58:00,,0829.8,5.01,0.00,23.4,22.7,00.0,32.2,25.3,06.5,-001.0,0019.43,0013.51,0012.84
2022-02-25 18:59:00,,0829.8,5.00,0.00,23.4,22.7,00.0,32.3,25.3,06.6,-001.1,0019.50,0013.52,0012.86
